• In France
  • List of Countries
  • For 7 days
  • Water Temperature
  • Satellite Maps
  • Weather Map
  • Weather Widgets
  • user-avatar
    Login

    Hourly Weather Loubomo

    Today, 19 February, Monday

    Time Temperature Precipitation Wind Pressure Humidity
    00:00 +24°C° 0 mm 1 mps 699 mmHg 83%
    01:00 +23°C° 0 mm 1 mps 699 mmHg 92%
    02:00 +23°C° 0.6 mm 1 mps 699 mmHg 93%
    03:00 +22°C° 0.6 mm 1 mps 699 mmHg 95%
    04:00 +20°C° 0.6 mm 0 mps 699 mmHg 96%
    05:00 +20°C° 0 mm 0 mps 699 mmHg 96%
    06:00 +20°C° 0 mm 0 mps 699 mmHg 96%
    07:00 +20°C° 0 mm 0 mps 700 mmHg 95%
    08:00 +25°C° 0 mm 1 mps 700 mmHg 81%
    09:00 +28°C° 0 mm 1 mps 701 mmHg 67%
    10:00 +31°C° 0 mm 1 mps 701 mmHg 54%
    11:00 +33°C° 0 mm 1 mps 701 mmHg 45%
    12:00 +36°C° 0 mm 1 mps 700 mmHg 36%
    13:00 +37°C° 0 mm 0 mps 700 mmHg 28%
    14:00 +35°C° 0 mm 0 mps 699 mmHg 32%
    15:00 +33°C° 0 mm 0 mps 698 mmHg 35%
    16:00 +31°C° 0 mm 0 mps 697 mmHg 39%
    17:00 +30°C° 0 mm 0 mps 697 mmHg 43%
    18:00 +28°C° 0 mm 0 mps 697 mmHg 47%
    19:00 +28°C° 0 mm 1 mps 697 mmHg 51%
    20:00 +28°C° 0.1 mm 1 mps 698 mmHg 56%
    21:00 +27°C° 0.1 mm 1 mps 698 mmHg 61%
    22:00 +26°C° 0.1 mm 1 mps 699 mmHg 66%
    23:00 +25°C° 0 mm 1 mps 699 mmHg 71%

    Tomorrow, 20 February, Tuesday

    Time Temperature Precipitation Wind Pressure Humidity
    00:00 +24°C° 0 mm 1 mps 699 mmHg 76%
    01:00 +24°C° 0 mm 1 mps 699 mmHg 81%
    02:00 +23°C° 0.3 mm 1 mps 699 mmHg 85%
    03:00 +23°C° 0.3 mm 1 mps 698 mmHg 89%
    04:00 +23°C° 0.3 mm 1 mps 698 mmHg 94%
    05:00 +23°C° 0 mm 1 mps 699 mmHg 94%
    06:00 +23°C° 0 mm 1 mps 699 mmHg 94%
    07:00 +23°C° 0 mm 1 mps 699 mmHg 94%
    08:00 +25°C° 0 mm 1 mps 700 mmHg 83%
    09:00 +27°C° 0 mm 1 mps 700 mmHg 72%
    10:00 +29°C° 0 mm 1 mps 701 mmHg 61%
    11:00 +32°C° 0 mm 1 mps 700 mmHg 52%
    12:00 +35°C° 0 mm 1 mps 700 mmHg 43%
    13:00 +35°C° 0 mm 0 mps 699 mmHg 35%
    14:00 +36°C° 0 mm 1 mps 698 mmHg 36%
    15:00 +35°C° 0 mm 1 mps 697 mmHg 37%
    16:00 +34°C° 0 mm 1 mps 696 mmHg 39%
    17:00 +32°C° 0 mm 1 mps 696 mmHg 45%
    18:00 +30°C° 0 mm 1 mps 697 mmHg 51%
    19:00 +29°C° 0 mm 1 mps 697 mmHg 56%
    20:00 +28°C° 0 mm 1 mps 697 mmHg 60%
    21:00 +27°C° 0 mm 2 mps 698 mmHg 63%
    22:00 +27°C° 0 mm 2 mps 699 mmHg 67%
    23:00 +26°C° 0 mm 2 mps 698 mmHg 72%

    Day after tomorrow, 21 February, Wednesday

    Time Temperature Precipitation Wind Pressure Humidity
    00:00 +25°C° 0 mm 2 mps 698 mmHg 78%
    01:00 +25°C° 0 mm 1 mps 698 mmHg 83%
    02:00 +24°C° 0 mm 1 mps 698 mmHg 85%
    03:00 +24°C° 0 mm 1 mps 698 mmHg 87%
    04:00 +23°C° 0 mm 1 mps 698 mmHg 89%
    05:00 +23°C° 0 mm 1 mps 698 mmHg 90%
    06:00 +23°C° 0 mm 1 mps 699 mmHg 90%
    07:00 +23°C° 0 mm 1 mps 699 mmHg 91%
    08:00 +25°C° 0 mm 1 mps 700 mmHg 79%
    09:00 +28°C° 0 mm 1 mps 700 mmHg 67%
    10:00 +30°C° 0 mm 2 mps 701 mmHg 55%
    11:00 +32°C° 0 mm 2 mps 700 mmHg 49%
    12:00 +34°C° 0 mm 2 mps 699 mmHg 43%
    13:00 +36°C° 0 mm 2 mps 699 mmHg 37%
    14:00 +35°C° 0 mm 2 mps 698 mmHg 40%
    15:00 +33°C° 0 mm 1 mps 697 mmHg 42%
    16:00 +32°C° 0 mm 1 mps 696 mmHg 45%
    17:00 +31°C° 0 mm 1 mps 696 mmHg 51%
    18:00 +29°C° 0 mm 1 mps 697 mmHg 56%
    19:00 +28°C° 0 mm 1 mps 697 mmHg 62%
    20:00 +27°C° 0 mm 1 mps 697 mmHg 65%
    21:00 +26°C° 0 mm 2 mps 698 mmHg 68%
    22:00 +26°C° 0 mm 2 mps 699 mmHg 70%
    23:00 +25°C° 0 mm 2 mps 698 mmHg 74%

    22 February, Thursday

    Time Temperature Precipitation Wind Pressure Humidity
    00:00 +25°C° 0 mm 2 mps 698 mmHg 77%
    01:00 +24°C° 0 mm 2 mps 698 mmHg 81%
    02:00 +24°C° 0 mm 2 mps 697 mmHg 83%
    03:00 +23°C° 0 mm 1 mps 697 mmHg 85%
    04:00 +23°C° 0 mm 1 mps 697 mmHg 87%
    05:00 +23°C° 0 mm 1 mps 698 mmHg 87%
    06:00 +20°C° 0 mm 0 mps 698 mmHg 88%
    07:00 +20°C° 0 mm 0 mps 699 mmHg 88%
    08:00 +25°C° 0 mm 1 mps 699 mmHg 76%
    09:00 +27°C° 0 mm 1 mps 700 mmHg 64%
    10:00 +30°C° 0 mm 2 mps 700 mmHg 53%
    11:00 +32°C° 0 mm 2 mps 699 mmHg 47%
    12:00 +34°C° 0 mm 1 mps 699 mmHg 41%
    13:00 +36°C° 0 mm 1 mps 698 mmHg 35%
    14:00 +35°C° 0 mm 1 mps 697 mmHg 37%
    15:00 +34°C° 0 mm 1 mps 696 mmHg 39%
    16:00 +33°C° 0 mm 1 mps 695 mmHg 41%
    17:00 +32°C° 0 mm 1 mps 696 mmHg 45%
    18:00 +30°C° 0 mm 1 mps 696 mmHg 50%
    19:00 +29°C° 0 mm 1 mps 696 mmHg 54%
    20:00 +28°C° 0 mm 1 mps 697 mmHg 57%
    21:00 +27°C° 0 mm 1 mps 697 mmHg 60%
    22:00 +27°C° 0 mm 1 mps 698 mmHg 63%
    23:00 +26°C° 0 mm 1 mps 697 mmHg 69%

    23 February, Friday

    Time Temperature Precipitation Wind Pressure Humidity
    00:00 +25°C° 0 mm 1 mps 697 mmHg 74%
    01:00 +24°C° 0 mm 1 mps 696 mmHg 79%
    02:00 +24°C° 0 mm 1 mps 696 mmHg 83%
    03:00 +23°C° 0 mm 1 mps 696 mmHg 87%
    04:00 +23°C° 0 mm 1 mps 696 mmHg 91%
    05:00 +23°C° 0 mm 1 mps 697 mmHg 91%
    06:00 +21°C° 0 mm 0 mps 698 mmHg 91%
    07:00 +21°C° 0 mm 0 mps 698 mmHg 91%
    08:00 +25°C° 0.1 mm 1 mps 699 mmHg 80%
    09:00 +27°C° 0.1 mm 1 mps 700 mmHg 69%
    10:00 +30°C° 0.1 mm 1 mps 700 mmHg 58%
    11:00 +32°C° 0 mm 1 mps 700 mmHg 50%
    12:00 +35°C° 0 mm 1 mps 699 mmHg 42%
    13:00 +37°C° 0 mm 1 mps 698 mmHg 33%
    14:00 +36°C° 0 mm 1 mps 698 mmHg 36%
    15:00 +33°C° 0 mm 0 mps 697 mmHg 39%
    16:00 +32°C° 0 mm 0 mps 696 mmHg 42%
    17:00 +30°C° 0 mm 0 mps 696 mmHg 46%
    18:00 +29°C° 0 mm 0 mps 697 mmHg 51%
    19:00 +27°C° 0 mm 0 mps 697 mmHg 55%
    20:00 +28°C° 0.4 mm 1 mps 697 mmHg 64%
    21:00 +26°C° 0.4 mm 1 mps 697 mmHg 73%
    22:00 +25°C° 0.4 mm 1 mps 698 mmHg 82%
    23:00 +24°C° 1.5 mm 1 mps 698 mmHg 86%

    24 February, Saturday

    Time Temperature Precipitation Wind Pressure Humidity
    00:00 +22°C° 1.5 mm 0 mps 698 mmHg 91%
    01:00 +21°C° 1.5 mm 0 mps 698 mmHg 95%
    02:00 +21°C° 0.3 mm 0 mps 698 mmHg 95%
    03:00 +21°C° 0.3 mm 0 mps 698 mmHg 95%
    04:00 +23°C° 0.3 mm 1 mps 698 mmHg 95%
    05:00 +23°C° 0 mm 1 mps 698 mmHg 95%
    06:00 +21°C° 0 mm 0 mps 699 mmHg 95%
    07:00 +21°C° 0 mm 0 mps 699 mmHg 95%
    08:00 +26°C° 0 mm 1 mps 699 mmHg 82%
    09:00 +29°C° 0 mm 1 mps 700 mmHg 69%
    10:00 +31°C° 0 mm 1 mps 701 mmHg 56%
    11:00 +33°C° 0.5 mm 1 mps 700 mmHg 49%
    12:00 +35°C° 0.5 mm 1 mps 699 mmHg 43%
    13:00 +37°C° 0.5 mm 1 mps 699 mmHg 37%
    14:00 +36°C° 0 mm 1 mps 698 mmHg 38%
    15:00 +35°C° 0 mm 1 mps 697 mmHg 39%
    16:00 +35°C° 0 mm 1 mps 697 mmHg 40%
    17:00 +33°C° 0 mm 1 mps 697 mmHg 46%
    18:00 +31°C° 0 mm 1 mps 697 mmHg 53%
    19:00 +27°C° 0 mm 0 mps 697 mmHg 59%
    20:00 +28°C° 0 mm 1 mps 697 mmHg 63%
    21:00 +27°C° 0 mm 1 mps 698 mmHg 67%
    22:00 +26°C° 0 mm 1 mps 698 mmHg 71%
    23:00 +25°C° 0.9 mm 1 mps 698 mmHg 79%
    Show more